�N����,����,�~����,�C��,���x,�C��,����,���ϕ���,�ő�u�ԕ���,�ő厞����,���˗�,�I�_���x,�n�����x,�ő啗���N��,DTYPE
"23/06/30","00:10",0.0,24.0,94.5,1002.4,35.4,0.3,1.3,12.7,0.00,23.1,23.6,"00:04:24",1
"23/06/30","00:20",0.0,24.0,94.6,1002.2,287.7,0.8,1.3,336.4,0.00,23.1,23.4,"00:18:32",1
"23/06/30","00:30",0.2,23.9,94.6,1002.2,317.5,0.3,1.0,326.5,0.00,23.0,23.3,"00:20:40",1
"23/06/30","00:40",0.0,23.9,94.7,1001.9,316.2,0.5,1.0,352.1,0.00,23.0,23.4,"00:38:08",1
"23/06/30","00:50",0.0,23.9,94.8,1001.9,295.4,0.6,0.9,316.0,0.00,23.1,23.6,"00:41:36",1
"23/06/30","01:00",0.0,23.9,94.8,1001.7,318.4,0.6,1.2,325.3,0.00,23.1,23.6,"00:54:56",1
"23/06/30","01:10",0.0,23.8,94.9,1001.9,318.3,0.6,1.3,340.6,0.00,23.0,23.5,"01:00:02",1
"23/06/30","01:20",0.0,23.8,94.9,1001.7,312.4,0.7,1.4,328.1,0.00,23.0,23.2,"01:11:12",1
"23/06/30","01:30",0.0,23.8,95.1,1001.7,311.3,0.8,1.9,344.5,0.00,23.0,23.5,"01:25:28",1
"23/06/30","01:40",0.0,23.7,95.1,1001.7,306.3,1.0,1.7,328.7,0.00,22.9,23.3,"01:30:56",1
"23/06/30","01:50",0.2,23.7,95.2,1001.5,283.7,0.3,0.8,267.5,0.00,22.9,23.4,"01:41:12",1
"23/06/30","02:00",0.2,23.7,95.2,1001.5,322.0,0.5,1.0,334.6,0.00,22.9,23.5,"01:54:40",1
"23/06/30","02:10",0.2,23.7,95.3,1001.2,304.1,0.5,1.0,344.6,0.00,22.9,23.4,"02:00:08",1
"23/06/30","02:20",0.0,23.7,95.3,1001.2,283.2,0.6,1.0,321.7,0.00,22.9,23.5,"02:19:52",1
"23/06/30","02:30",0.2,23.6,95.4,1001.5,303.0,0.5,1.2,338.7,0.00,22.9,23.2,"02:20:24",1
"23/06/30","02:40",0.0,23.7,95.4,1001.2,333.9,0.5,1.1,334.5,0.00,23.0,23.5,"02:38:40",1
"23/06/30","02:50",0.2,23.7,95.4,1001.0,333.9,0.7,1.0,329.9,0.00,23.0,23.2,"02:40:16",1
"23/06/30","03:00",0.0,23.7,95.5,1001.0,306.8,0.5,0.8,313.4,0.00,23.0,23.4,"02:50:24",1
"23/06/30","03:10",0.0,23.6,95.6,1000.8,316.5,0.7,1.7,322.8,0.00,22.9,22.9,"03:09:12",1
"23/06/30","03:20",0.2,23.6,95.6,1000.8,309.6,0.6,1.1,323.8,0.00,22.9,23.4,"03:10:40",1
"23/06/30","03:30",0.0,23.6,95.7,1001.0,278.9,0.3,1.1,334.4,0.00,22.9,23.4,"03:20:02",1
"23/06/30","03:40",0.0,23.6,95.7,1000.8,318.5,0.8,1.6,333.1,0.00,22.9,23.3,"03:38:48",1
"23/06/30","03:50",0.2,23.7,95.7,1000.5,328.6,0.7,1.7,349.0,0.00,23.0,23.2,"03:40:48",1
"23/06/30","04:00",0.0,23.7,95.7,1000.3,313.0,0.5,0.9,336.7,0.00,23.0,23.4,"03:52:16",1
"23/06/30","04:10",0.0,23.7,95.8,1000.3,290.0,0.5,0.6,317.9,0.00,23.0,23.2,"04:08:16",1
"23/06/30","04:20",0.0,23.7,95.8,1000.0,307.6,0.7,1.2,335.9,0.00,23.0,23.4,"04:17:20",1
"23/06/30","04:30",0.0,23.7,95.9,1000.0,280.0,0.5,1.1,320.7,0.00,23.0,23.3,"04:21:44",1
"23/06/30","04:40",0.0,23.8,95.9,1000.0,316.9,0.7,1.6,342.6,0.00,23.1,23.2,"04:37:44",1
"23/06/30","04:50",0.0,23.8,95.9,1000.3,322.9,0.7,1.3,337.4,0.00,23.1,23.3,"04:40:32",1
"23/06/30","05:00",0.0,23.8,96.0,1000.0,323.3,0.7,1.1,337.7,0.00,23.2,23.2,"04:50:40",1
"23/06/30","05:10",0.0,23.9,96.0,1000.8,299.1,0.6,1.1,323.8,0.00,23.3,23.1,"05:03:20",1
"23/06/30","05:20",0.0,23.8,96.0,1000.5,287.4,0.3,0.9,302.3,0.00,23.2,23.3,"05:11:36",1
"23/06/30","05:30",0.0,23.9,96.0,1000.5,304.1,0.3,0.9,315.7,0.00,23.3,23.3,"05:28:32",1
"23/06/30","05:40",0.0,23.9,96.1,1000.5,336.3,0.8,1.4,344.1,0.00,23.3,23.3,"05:35:12",1
"23/06/30","05:50",0.0,23.9,96.1,1000.5,308.9,0.6,1.3,336.3,0.00,23.3,23.1,"05:40:56",1
"23/06/30","06:00",0.0,23.9,96.1,1000.5,265.9,0.3,0.6,241.8,0.00,23.3,23.0,"05:51:20",1
"23/06/30","06:10",0.0,24.0,96.1,1000.5,271.3,0.3,0.9,247.3,0.00,23.4,23.2,"06:07:52",1
"23/06/30","06:20",0.0,23.9,96.2,1000.8,258.5,0.7,1.2,237.7,0.00,23.3,23.0,"06:16:40",1
"23/06/30","06:30",0.0,24.0,96.2,1000.8,279.9,0.3,0.8,319.6,0.00,23.4,23.1,"06:29:20",1
"23/06/30","06:40",0.0,24.2,96.2,1000.8,344.0,0.5,0.9,13.6,0.01,23.6,23.1,"06:30:56",1
"23/06/30","06:50",0.0,24.3,96.2,1000.5,332.5,0.5,1.3,333.2,0.00,23.7,23.0,"06:42:16",1
"23/06/30","07:00",0.0,24.3,96.2,1000.3,233.4,0.5,1.0,240.1,0.01,23.7,23.1,"06:57:52",1
"23/06/30","07:10",0.0,24.4,96.2,1000.3,289.2,0.1,0.5,304.9,0.01,23.8,23.2,"07:01:04",1
"23/06/30","07:20",0.0,24.5,96.2,1000.5,300.4,0.6,1.6,335.8,0.04,23.9,23.2,"07:17:12",1
"23/06/30","07:30",0.0,24.5,96.2,1000.3,344.1,0.8,1.6,349.0,0.02,23.9,23.1,"07:21:52",1
"23/06/30","07:40",0.0,24.6,96.2,1000.5,351.4,0.2,0.6,341.3,0.02,24.0,23.1,"07:30:16",1
"23/06/30","07:50",0.0,24.9,96.3,1000.3,301.8,0.5,0.9,258.6,0.05,24.3,23.1,"07:41:12",1
"23/06/30","08:00",0.0,25.3,96.3,1000.3,314.3,0.2,1.0,242.6,0.12,24.7,23.1,"07:59:44",1
"23/06/30","08:10",0.0,25.8,96.1,1000.3,253.7,0.2,1.0,220.5,0.20,25.2,23.0,"08:05:20",1
"23/06/30","08:20",0.0,26.0,96.0,1000.0,155.8,0.3,1.0,147.1,0.14,25.4,23.0,"08:15:36",1
"23/06/30","08:30",0.0,26.2,96.0,1000.0,263.8,0.2,0.6,112.5,0.12,25.6,23.1,"08:21:04",1
"23/06/30","08:40",0.0,26.2,96.0,1000.3,269.5,0.2,0.9,345.2,0.09,25.6,23.0,"08:37:20",1
"23/06/30","08:50",0.0,26.4,95.8,999.8,304.8,0.1,0.5,304.7,0.10,25.7,23.2,"08:44:48",1
"23/06/30","09:00",0.0,26.4,95.9,1000.0,226.4,0.2,0.8,231.3,0.09,25.7,23.1,"08:56:32",1
"23/06/30","09:10",0.0,26.4,95.9,1000.3,239.5,0.3,0.9,246.0,0.08,25.7,23.3,"09:04:48",1
"23/06/30","09:20",0.0,26.7,96.0,1000.0,19.8,0.1,0.9,320.4,0.14,26.0,23.2,"09:10:08",1
"23/06/30","09:30",0.0,27.0,96.0,1000.0,345.2,0.6,1.8,345.5,0.28,26.3,23.1,"09:23:36",1
"23/06/30","09:40",0.0,27.0,95.5,1000.0,40.4,0.6,1.2,25.8,0.20,26.3,23.1,"09:39:52",1
"23/06/30","09:50",0.0,26.9,95.1,1000.3,142.7,0.3,1.1,117.0,0.09,26.1,23.2,"09:46:32",1
"23/06/30","10:00",0.0,26.7,95.4,999.8,16.9,0.5,1.3,335.8,0.09,25.9,23.3,"09:53:12",1
"23/06/30","10:10",0.0,26.9,95.1,999.6,12.0,0.6,1.4,4.3,0.20,26.1,23.3,"10:08:08",1
"23/06/30","10:20",0.0,27.6,94.6,998.9,117.0,0.6,1.6,19.3,0.28,26.7,23.4,"10:12:00",1
"23/06/30","10:30",0.0,26.8,93.9,999.3,177.1,1.2,2.7,182.9,0.20,25.8,23.2,"10:28:00",1
"23/06/30","10:40",0.0,27.3,93.4,999.6,186.2,0.8,2.6,240.6,0.20,26.2,23.5,"10:38:32",1
"23/06/30","10:50",0.0,27.5,91.8,1000.0,230.3,1.7,4.3,226.2,0.43,26.1,23.2,"10:49:52",1
"23/06/30","11:00",0.0,27.8,90.6,999.8,231.0,1.5,4.5,190.4,0.21,26.2,23.4,"10:50:24",1
"23/06/30","11:10",0.0,27.9,88.1,999.6,216.7,2.1,5.9,217.3,0.21,25.8,23.3,"11:04:32",1
"23/06/30","11:20",0.2,28.0,85.4,999.1,221.9,2.5,6.8,211.0,0.19,25.4,23.4,"11:12:48",1
"23/06/30","11:30",0.0,28.2,84.0,999.1,232.7,1.8,4.5,229.8,0.15,25.3,23.2,"11:24:32",1
"23/06/30","11:40",0.0,27.9,83.1,998.6,220.4,2.5,6.5,203.7,0.13,24.8,23.3,"11:33:52",1
"23/06/30","11:50",0.0,28.3,82.6,998.9,238.9,1.1,2.0,186.6,0.14,25.1,23.4,"11:46:08",1
"23/06/30","12:00",0.0,28.6,81.9,998.9,207.4,1.2,3.6,233.6,0.15,25.2,23.4,"11:58:40",1
"23/06/30","12:10",0.0,28.7,81.3,999.3,227.8,1.5,3.7,224.7,0.16,25.2,23.4,"12:04:00",1
"23/06/30","12:20",0.0,28.5,80.5,999.1,250.8,1.5,3.2,231.7,0.16,24.9,23.5,"12:15:36",1
"23/06/30","12:30",0.0,28.4,80.4,999.6,244.0,2.0,6.5,233.4,0.14,24.7,23.6,"12:21:28",1
"23/06/30","12:40",0.0,28.3,80.5,999.3,238.0,1.7,3.4,222.9,0.15,24.7,23.7,"12:36:32",1
"23/06/30","12:50",0.0,28.4,80.4,999.3,234.4,2.0,5.2,225.3,0.17,24.7,23.5,"12:41:28",1
"23/06/30","13:00",0.0,29.0,80.4,999.1,223.2,1.2,2.9,192.0,0.25,25.3,23.5,"12:50:40",1
"23/06/30","13:10",0.0,29.1,78.1,999.6,216.4,2.5,5.8,216.7,0.29,24.9,23.6,"13:04:48",1
"23/06/30","13:20",0.0,29.5,77.7,999.6,214.1,1.3,3.6,237.0,0.26,25.2,23.6,"13:14:40",1
"23/06/30","13:30",0.0,30.1,75.9,1000.0,256.0,1.6,4.3,350.0,0.45,25.4,23.4,"13:28:40",1
"23/06/30","13:40",0.0,30.4,73.2,1000.3,237.6,1.2,3.1,292.6,0.32,25.1,23.7,"13:34:56",1
"23/06/30","13:50",0.0,29.4,74.9,999.8,233.7,1.3,4.4,221.2,0.10,24.5,23.5,"13:47:28",1
"23/06/30","14:00",0.0,28.5,78.3,998.9,239.6,3.1,6.5,221.2,0.14,24.4,23.7,"13:55:52",1
"23/06/30","14:10",0.0,28.1,80.9,998.6,229.8,2.2,6.7,209.6,0.14,24.5,23.7,"14:03:28",1
"23/06/30","14:20",0.4,27.9,82.6,998.2,227.0,1.6,3.7,215.6,0.15,24.7,23.7,"14:18:00",1
"23/06/30","14:30",0.0,28.0,83.9,997.9,247.0,1.5,2.9,211.5,0.28,25.1,23.7,"14:28:24",1
"23/06/30","14:40",0.0,27.5,83.5,998.2,242.5,2.2,4.3,224.2,0.15,24.5,23.8,"14:32:08",1
"23/06/30","14:50",0.0,27.5,83.9,997.9,262.7,2.0,4.3,250.8,0.16,24.6,23.7,"14:42:08",1
"23/06/30","15:00",0.0,27.6,84.1,997.9,278.2,1.5,3.5,312.1,0.12,24.7,23.8,"14:57:44",1
"23/06/30","15:10",0.0,27.9,84.0,998.2,253.8,0.8,3.5,234.2,0.15,25.0,23.7,"15:03:28",1
"23/06/30","15:20",0.2,27.8,83.9,998.2,276.3,1.1,2.7,237.3,0.11,24.9,23.9,"15:18:40",1
"23/06/30","15:30",0.0,27.4,84.4,998.4,325.7,1.5,3.6,337.6,0.08,24.6,23.7,"15:29:28",1
"23/06/30","15:40",0.0,27.5,84.9,998.4,269.4,1.3,2.9,237.7,0.06,24.8,23.9,"15:37:28",1
"23/06/30","15:50",0.0,27.5,84.4,998.4,316.6,1.2,2.8,311.9,0.09,24.7,23.9,"15:42:48",1
"23/06/30","16:00",0.0,27.4,84.1,998.6,246.7,1.8,3.4,230.9,0.05,24.5,23.6,"15:52:56",1
"23/06/30","16:10",0.0,27.6,83.6,998.6,244.5,1.5,3.5,252.6,0.06,24.6,23.7,"16:08:08",1
"23/06/30","16:20",0.0,27.6,83.5,998.6,302.3,1.3,2.9,335.4,0.06,24.6,23.8,"16:18:00",1
"23/06/30","16:30",0.0,27.6,83.8,998.4,288.7,0.8,2.6,344.2,0.07,24.7,23.8,"16:21:44",1
"23/06/30","16:40",0.0,27.5,84.1,998.9,277.3,1.2,3.1,234.1,0.06,24.6,23.9,"16:37:52",1
"23/06/30","16:50",0.2,27.6,84.5,999.1,264.3,0.8,2.8,331.6,0.09,24.8,24.0,"16:40:08",1
"23/06/30","17:00",0.0,27.4,84.5,998.9,264.7,1.2,2.6,332.8,0.10,24.6,23.7,"16:57:36",1
"23/06/30","17:10",0.0,27.3,85.0,999.1,267.4,1.0,2.7,239.9,0.07,24.6,23.7,"17:05:04",1
"23/06/30","17:20",0.2,27.2,85.2,998.9,278.3,1.0,2.1,265.2,0.06,24.5,23.8,"17:12:56",1
"23/06/30","17:30",0.0,27.0,85.4,999.1,313.1,0.7,2.1,343.9,0.08,24.4,23.9,"17:28:48",1
"23/06/30","17:40",0.2,27.0,86.2,998.6,269.2,0.8,2.1,209.7,0.06,24.5,23.8,"17:32:40",1
"23/06/30","17:50",0.0,26.9,86.9,999.1,287.1,0.6,1.6,240.3,0.06,24.6,23.8,"17:40:24",1
"23/06/30","18:00",0.0,27.0,87.6,999.1,341.2,0.7,1.6,351.8,0.05,24.8,23.8,"17:53:12",1
"23/06/30","18:10",0.2,26.8,88.4,999.1,350.6,0.7,1.4,327.6,0.05,24.8,24.0,"18:03:20",1
"23/06/30","18:20",0.0,26.7,88.9,999.1,353.4,0.6,1.7,336.5,0.03,24.8,23.8,"18:18:56",1
"23/06/30","18:30",0.0,26.6,89.5,999.3,350.2,0.7,1.6,339.6,0.04,24.8,23.8,"18:29:12",1
"23/06/30","18:40",0.0,26.4,90.0,999.3,345.3,0.7,1.4,349.1,0.04,24.7,24.0,"18:36:24",1
"23/06/30","18:50",0.0,26.4,90.4,999.3,344.1,0.6,1.1,359.1,0.05,24.7,23.9,"18:45:52",1
"23/06/30","19:00",0.0,26.5,90.7,999.1,353.5,0.5,1.1,344.9,0.04,24.9,23.7,"18:51:44",1
"23/06/30","19:10",0.2,26.3,90.9,999.1,353.1,0.7,1.7,355.6,0.01,24.7,23.8,"19:06:28",1
"23/06/30","19:20",0.0,26.1,91.2,999.1,17.1,0.6,1.4,18.4,0.00,24.6,23.9,"19:11:44",1
"23/06/30","19:30",0.0,26.0,91.4,999.3,3.8,0.6,1.4,18.1,0.00,24.5,23.9,"19:22:16",1
"23/06/30","19:40",0.0,25.9,91.8,999.1,7.3,0.7,1.4,17.6,0.00,24.5,23.9,"19:39:28",1
"23/06/30","19:50",0.0,25.6,92.0,999.1,345.2,0.5,1.2,20.7,0.00,24.2,24.0,"19:41:44",1
"23/06/30","20:00",0.0,25.6,92.2,999.6,281.4,0.2,0.8,331.1,0.00,24.3,23.7,"19:58:32",1
"23/06/30","20:10",0.0,25.6,92.5,999.3,338.2,0.8,1.6,349.2,0.00,24.3,24.0,"20:05:44",1
"23/06/30","20:20",0.0,25.2,92.7,999.8,308.6,1.1,2.6,350.5,0.00,24.0,23.7,"20:15:44",1
"23/06/30","20:30",0.0,25.1,92.9,999.8,263.2,0.8,1.9,242.4,0.00,23.9,23.8,"20:23:28",1
"23/06/30","20:40",0.2,25.2,93.0,999.8,267.2,0.5,1.4,272.7,0.00,24.0,24.0,"20:30:08",1
"23/06/30","20:50",0.0,25.1,93.0,1000.0,57.1,0.2,0.8,110.4,0.00,23.9,23.8,"20:46:56",1
"23/06/30","21:00",0.2,25.1,93.1,1000.3,18.8,0.6,1.2,37.2,0.00,23.9,23.9,"20:53:44",1
"23/06/30","21:10",0.2,25.0,93.2,1000.0,353.1,0.7,1.3,0.6,0.00,23.9,23.7,"21:02:08",1
"23/06/30","21:20",0.0,24.9,93.4,1000.3,339.9,0.8,1.4,353.5,0.00,23.8,23.7,"21:12:40",1
"23/06/30","21:30",0.0,24.9,93.5,999.8,17.1,0.5,1.3,351.0,0.00,23.8,23.7,"21:20:32",1
"23/06/30","21:40",0.2,24.8,93.7,1000.0,8.6,0.5,1.0,337.6,0.00,23.8,23.7,"21:35:36",1
"23/06/30","21:50",0.2,24.8,93.8,1000.0,325.5,0.5,0.8,2.2,0.00,23.8,23.8,"21:42:00",1
"23/06/30","22:00",0.0,24.7,93.9,1000.0,343.0,0.6,1.1,4.3,0.00,23.7,23.7,"21:52:32",1
"23/06/30","22:10",0.2,24.6,94.0,999.8,348.0,0.5,0.9,336.0,0.00,23.6,23.9,"22:03:12",1
"23/06/30","22:20",0.0,24.7,94.1,1000.0,8.1,0.5,1.1,44.5,0.00,23.7,23.7,"22:19:12",1
"23/06/30","22:30",0.0,24.7,94.2,1000.0,331.3,0.3,1.0,348.2,0.00,23.7,23.7,"22:27:20",1
"23/06/30","22:40",0.0,24.6,94.3,999.8,332.0,0.5,0.9,303.6,0.00,23.7,23.8,"22:34:40",1
"23/06/30","22:50",0.0,24.7,94.4,999.6,337.9,0.6,1.3,10.1,0.00,23.8,23.6,"22:45:28",1
"23/06/30","23:00",0.2,24.7,94.5,999.6,224.2,0.1,0.6,350.3,0.00,23.8,23.6,"22:50:32",1
"23/06/30","23:10",0.2,24.8,94.6,999.6,288.1,0.5,1.1,337.9,0.00,23.9,23.5,"23:08:56",1
"23/06/30","23:20",0.0,24.7,94.6,999.6,352.1,1.0,2.2,352.0,0.00,23.8,23.7,"23:15:36",1
"23/06/30","23:30",0.2,24.8,94.7,999.1,30.7,0.6,1.3,4.4,0.00,23.9,23.6,"23:23:28",1
"23/06/30","23:40",0.0,24.8,94.8,999.6,352.7,0.6,1.0,349.1,0.00,23.9,23.7,"23:38:16",1
"23/06/30","23:50",0.0,24.8,94.8,999.3,0.3,0.7,1.3,350.9,0.00,23.9,23.8,"23:42:24",1
"23/06/30","24:00",0.0,24.8,94.9,999.6,340.7,0.8,1.3,346.2,0.00,24.0,23.6,"23:55:52",1
